Location: Unspecified
(0.0000°N, 0.0000°E)
Time: 18:47:57
(UTC+00:00)

DMSP B5D2-6 - Visible Passes

Search period start: 03 December 2024 00:00
Search period end: 13 December 2024 00:00
Orbit: 825 x 845 km, 98.8° (Epoch: 02 December)

Date Brightness Start Highest point End Pass type
(mag) Time Alt. Az. Time Alt. Az. Time Alt. Az.
03 Dec 5.7 19:46:03 10° S 19:51:22 56° WSW 19:56:38 10° NNW visible
04 Dec 5.1 19:29:30 10° SSE 19:34:57 87° WSW 19:40:21 10° NNW visible
05 Dec 5.1 19:13:12 10° SSE 19:18:33 60° ENE 19:23:50 10° N visible
06 Dec 5.6 18:57:08 10° SE 19:02:08 38° ENE 19:07:04 10° N visible
06 Dec 7.9 20:39:29 10° SW 20:42:11 14° WSW 20:44:53 10° WNW visible
07 Dec 6.1 18:41:23 10° SE 18:45:43 25° ENE 18:50:00 10° NNE visible
07 Dec 7.4 20:21:42 10° SSW 20:25:48 22° WSW 20:29:53 10° NW visible
08 Dec 6.6 18:26:11 10° ESE 18:29:18 16° ENE 18:32:24 10° NE visible
08 Dec 6.7 20:04:32 10° SSW 20:09:24 34° WSW 20:14:14 10° NW visible
09 Dec 5.8 19:47:43 10° S 19:52:59 53° WSW 19:58:13 10° NNW visible
10 Dec 5.1 19:31:09 10° S 19:36:34 84° WSW 19:41:57 10° NNW visible
11 Dec 5.1 19:14:48 10° SSE 19:20:09 63° ENE 19:25:27 10° N visible
12 Dec 5.5 18:58:42 10° SE 19:03:44 40° ENE 19:08:42 10° N visible
12 Dec 8.0 20:41:20 10° SW 20:43:47 13° WSW 20:46:15 10° WNW visible
